Погода в Виноградном

Россия / Ростовская область     48°00′00″N   40°54′45″E
темп.,
°C
ветер,
м/с
пор.,
м/с
влажн.,
%
обл.,
%
осадки,
мм/ч
давл.,
гПа
погр.,
м
22 апреля, чт
чт2200:00+8юз36795 0.0 1021101
03:00+7юз22835 0.0 102123
06:00+7юз22838 0.0 102216
09:00+13юз346430 0.0 1022534
12:00+16ююз455455 0.4 10221631
15:00+17ююз3447100 0.6 10212010
18:00+15ююз3565100 0.0 1021186
21:00+12ю3477100 1.3 102268
23 апреля, пт
пт2300:00+10ююв4791100 0.6 1023305
03:00+9ююв2393100 3.9 1022112
06:00+10зюз2490100 0.6 1022190
09:00+13зюз456916 0.8 1022807
12:00+16зюз555137 0.2 10211848
15:00+17зюз564248 0.3 10192270
18:00+15зюз48625 0.1 1019392
21:00+11зюз4107294 0.1 1019206
24 апреля, сб
сб2400:00+9юз3974100 0.0 1018194
03:00+9юз31076100 0.0 1017303
06:00+9ююз4118259 0.0 1016327
09:00+13юз7106590 0.0 1016968
12:00+14зюз91163100 0.8 10161694
15:00+12сз7870100 1.5 1017875
18:00+13юз585618 0.0 1016469
21:00+9юз6117328 0.1 1018279
25 апреля, вс
вс2500:00+7зсз36715 0.0 1018111
03:00+6зсз5106632 0.0 1019483
06:00+4з3973100 0.0 1021386
09:00+7сз5658100 0.0 1022915
12:00+10сз4445100 0.0 10211612
15:00+11сз3340100 0.0 10201775
18:00+10сз1249100 0.0 1021110
21:00+8юз0050100 0.0 102110
26 апреля, пн
пн2600:00+7ссз1152100 0.0 102110
03:00+6св115597 0.0 102010
06:00+5в1163100 0.0 101913
09:00+9вюв2352100 0.0 1019543
12:00+11юв2348100 0.0 10171421
15:00+12ю3251100 0.0 10161544
18:00+11ююв456847 0.1 1016487
21:00+7ю4890100 0.1 1016217